Main page
METAR-TAF:

METAR-TAF

Airports :

Sarakhs, Iran

Sarakhs Airport

latitude: 36-30-04N, longitude: 061-03-54E, elevation: 288 m

Current weather observation

The report was made 53 minutes ago, at 04:00 UTC
Calm wind
Temperature 25°C
Humidity 28%
Pressure 1012 hPa
Visibility 10 km or more
no clouds below 1500 m and no cumulonimbus

METAR: OIMC 240400Z 00000KT CAVOK 25/05 Q1012

Time: 09:23 (04:53 UTC)


TAF: missing

Weather observations and forecasts of more than 4000 airports (METAR and TAF reports).

The available stations are represented by yellow and red dots on the map.

Hover mouse over dot to see the name of the station.

Then click to see weather observations and forecasts.

To change the map : click on the green buttons with a black cross to zoom in, on the green button with a dash to zoom out, or on the green arrows for adjacent maps.


METAR-TAF: